Location: *
(45.1961°N, 1.9694°E)
Time: 00:43:51
(UTC+00:00)

Uosat 12 SS-18 rocket - Pass Details

Date: 25 August 2019
Orbit: 589 x 1396 km, 64.6° (Epoch: 18 October)

Event Time Altitude Azimuth Distance (km) Brightness Sun altitude
Rises 20:50:15 0° 322° (NW) 3,524 9.4 -20.5°
Reaches altitude 10° 20:52:59 10° 322° (NW) 2,452 8.3 -20.9°
Maximum altitude 20:58:29 76° 237° (WSW) 744 4.4 -21.6°
Enters shadow 20:59:40 51° 165° (SSE) 876 4.4 -21.7°
